Etusivu
METAR-TAF:

METAR-TAF

Lentoasemat :

Air Force Base Langebaanweg

Langebaan, Etelä-Afrikka

Leveyspiiri: 32-58-08S, Pituuspiiri: 018-09-55E, korkeus merenpinnasta: 33 m

Tämänhetkinen sää

Tämä raportti tehtiin 1 tunti ja 25 minuuttia sitten, kello 03.00 UTC
Tuuli 8 kn etelästä/lounaasta
Lämpötila 13°C
Kosteus 88%
Ilmanpaine 1016 hPa

METAR: FALW 260300Z AUTO 21008KT //// // ////// 13/11 Q1016

Aika: 06:25 (04:25 UTC)


TAF: puuttuu

Säähavainnot ja -ennusteet yli 4000 lentoasemalta (METAR- ja TAF-raportit).

Käytössä olevat sääasemat on merkitty karttaan keltaisilla ja punaisilla pisteillä.

Aseta hiiri pisteen päälle nähdäksesi sääaseman nimen.

Klikkaa sitten nähdäksesi säähavainnot ja -ennusteet.

Kartan vaihtaminen: klikkaa mustalla rastilla varustettuja vihreitä pisteitä, niin voit zoomata sisään; viivalla varustettua vihreää pistettä, niin voit zoomata ulos tai vihreitä nuolia, niin pääset viereisille kartoille.


METAR-TAF: